[[{"header":{"parameterUnit":"m.s-1","parameterCategory":1,"la1":30.2991,"la2":30.254,"lo1":-89.0895,"lo2":-89.0444,"dx":0.0017,"dy":0.0017,"nx":28,"ny":28,"refTime":"2022-12-24T09:00:00:Z","depth":0,"parameterNumber":2,"parameterNumberName":"U-component_of_WINDS"},"data":[0,0,0,0,0,0,0,0,0,0,0,0,0,0,0,0,0,0,0,0,0,0,0,0,0,0,0,0,0,0,0,0,0,0,0,0,0,0,0,0,0,0,0,0,0,0,0,0,0,0,0,0,0,0,0,0,0,0,-0.2134,-0.2134,0,-0.2171,-0.2172,-0.2172,-0.2161,-0.2161,-0.216,-0.2159,-0.2199,-0.2201,-0.2202,0,0,0,0,0,0,0,0,0,0,0,0,0,-0.2053,-0.2054,-0.2134,-0.2134,-0.2135,-0.2171,-0.2172,-0.2172,-0.2162,-0.2161,-0.216,-0.2159,-0.2198,-0.22,-0.2203,0,0,0,0,0,0,0,0,0,0,0,0,0,-0.2089,-0.2055,-0.2134,-0.2134,-0.2134,-0.2171,-0.2172,-0.2172,-0.2162,-0.2161,-0.2159,-0.2158,-0.2198,-0.22,-0.2203,-0.2242,0,0,-0.2211,-0.2212,0,0,0,0,0,0,0,0,-0.2087,-0.2092,-0.2133,-0.2134,-0.2134,-0.216,-0.2158,-0.2196,-0.2162,-0.2151,-0.2159,-0.2158,-0.2187,-0.2191,-0.22,-0.2244,-0.2246,-0.2211,-0.2213,-0.2214,-0.2215,0,0,0,0,0,0,0,-0.2084,-0.209,-0.2149,-0.2134,-0.2134,-0.2132,-0.2136,-0.2165,-0.2175,-0.2152,-0.2151,-0.2156,-0.2187,-0.2198,-0.2201,-0.2246,-0.2211,-0.2214,-0.2215,-0.2216,-0.2322,-0.2323,0,0,0,0,0,0,-0.2081,-0.2088,-0.2147,-0.215,-0.2107,-0.2134,-0.2138,-0.2153,-0.2175,-0.2177,-0.2157,-0.2155,-0.2194,-0.2198,-0.2202,-0.2248,-0.2214,-0.2216,-0.2218,-0.2321,-0.2322,-0.2323,0,0,0,0,0,0,-0.208,-0.2087,-0.2146,-0.2119,-0.2126,-0.2137,-0.2153,-0.2155,-0.2165,-0.2178,-0.218,-0.2166,-0.2193,-0.2199,-0.2232,-0.225,-0.2218,-0.222,-0.2319,-0.2321,-0.2323,-0.2341,0,0,0,0,0,0,-0.2077,-0.2086,-0.2102,-0.2119,-0.2127,-0.2175,-0.2155,-0.2156,-0.2169,-0.2168,-0.2187,-0.2189,-0.2192,-0.2228,-0.2234,-0.2253,-0.2222,-0.2318,-0.232,-0.2322,-0.2339,-0.2344,-0.2347,0,0,0,0,0,-0.2074,-0.2106,-0.2102,-0.211,-0.2147,-0.2176,-0.2181,-0.2183,-0.2171,-0.2186,-0.2194,-0.2189,-0.2246,-0.2231,-0.2239,-0.2258,-0.2317,-0.2319,-0.2322,-0.2337,-0.2343,-0.2347,0,0,0,0,0,0,-0.2092,-0.2109,-0.2105,-0.2143,-0.2158,-0.2174,-0.2194,-0.2189,-0.2209,-0.2206,-0.2209,-0.2213,-0.2247,-0.2256,-0.2239,-0.2296,-0.228,-0.2284,-0.2289,-0.2294,-0.2298,-0.2295,-0.2224,0,0,0,0,0,-0.21,-0.2122,-0.2136,-0.2168,-0.2176,-0.2183,-0.2196,-0.2196,-0.2212,-0.2219,-0.223,-0.2245,-0.2267,-0.2281,-0.2302,-0.234,-0.2343,-0.2357,-0.2361,-0.2364,-0.2368,-0.2387,-0.2392,-0.2332,-0.2332,-0.2332,0,0,-0.2118,-0.2129,-0.2144,-0.2172,-0.2184,-0.2206,-0.2189,-0.2214,-0.223,-0.2223,-0.2254,-0.2262,-0.228,-0.2315,-0.2331,-0.2324,-0.2385,-0.2368,-0.237,-0.2372,-0.239,-0.2396,-0.2401,-0.2334,-0.2334,-0.2334,0,0,-0.2161,-0.2172,-0.22,-0.2211,-0.2228,-0.2232,-0.2239,-0.2255,-0.226,-0.2291,-0.2285,-0.2305,-0.2342,-0.2354,-0.2365,-0.2409,-0.2404,-0.2416,-0.2437,-0.2456,-0.246,-0.2465,-0.2479,-0.2484,-0.242,-0.242,-0.242,0,-0.2181,-0.2214,-0.2215,-0.2239,-0.2251,-0.2244,-0.2271,-0.2282,-0.2305,-0.2314,-0.2304,-0.2349,-0.2361,-0.2398,-0.2408,-0.2418,-0.2424,-0.2414,-0.246,-0.2464,-0.2468,-0.2481,-0.2487,-0.2421,-0.2421,-0.2421,-0.242,0,-0.2236,-0.2259,-0.2279,-0.23,-0.2314,-0.234,-0.2344,-0.2358,-0.2357,-0.2362,-0.2392,-0.2406,-0.2428,-0.2436,-0.2436,-0.2473,-0.2467,-0.2459,-0.2443,-0.2475,-0.2487,-0.2493,-0.2423,-0.2422,-0.2422,-0.2421,0,0,-0.2293,-0.2312,-0.232,-0.2328,-0.2345,-0.2362,-0.2387,-0.2407,-0.2419,-0.2435,-0.2455,-0.2485,-0.2476,-0.2489,-0.2489,-0.2505,-0.2537,-0.2495,-0.2495,-0.2501,-0.2577,-0.2582,-0.2588,-0.2534,-0.2535,-0.2536,-0.2575,0,-0.2337,-0.238,-0.238,-0.2419,-0.2439,-0.2431,-0.2452,-0.2464,-0.2469,-0.2487,-0.2492,-0.2513,-0.2501,-0.2508,-0.2524,-0.253,-0.2552,-0.2527,-0.2552,-0.2553,-0.2547,-0.2595,-0.2602,-0.2638,-0.258,-0.2581,-0.2581,0,-0.2394,-0.2409,-0.245,-0.2462,-0.247,-0.2489,-0.2507,-0.2524,-0.2537,-0.2539,-0.2551,-0.2549,-0.2573,-0.2555,-0.2588,-0.257,-0.258,-0.2585,-0.2586,-0.2588,-0.2569,-0.2598,-0.265,-0.2655,-0.259,-0.2589,-0.2588,0,-0.2429,-0.2461,-0.2489,-0.2496,-0.2511,-0.2524,-0.2531,-0.2543,-0.2554,-0.2569,-0.2576,-0.2595,-0.2604,-0.2618,-0.262,-0.2607,-0.2652,-0.2635,-0.2654,-0.2653,-0.2663,-0.2663,-0.2717,-0.2671,-0.2671,-0.2671,-0.2671,0,-0.2478,-0.2503,-0.2504,-0.2522,-0.2549,-0.2548,-0.2575,-0.258,-0.259,-0.2608,-0.2603,-0.2619,-0.2621,-0.2637,-0.2639,-0.2664,-0.2669,-0.2671,-0.2671,-0.2671,-0.2671,-0.2677,-0.2675,-0.2672,-0.2672,-0.2672,-0.2671,0,-0.2522,-0.2525,-0.2554,-0.2565,-0.2568,-0.2587,-0.2596,-0.2612,-0.2615,-0.2637,-0.2642,-0.2647,-0.2666,-0.2669,-0.2692,-0.2693,-0.2723,-0.2721,-0.2718,-0.2718,-0.2736,-0.2734,-0.2796,-0.2803,-0.2753,-0.2753,-0.2754,0,-0.2553,-0.2571,-0.2583,-0.2594,-0.2601,-0.2619,-0.2629,-0.2629,-0.264,-0.2655,-0.2669,-0.2687,-0.2702,-0.2733,-0.2738,-0.2755,-0.2753,-0.2773,-0.2756,-0.2754,-0.2752,-0.275,-0.2751,-0.2777,-0.2777,-0.2778,-0.2778,0,-0.2606,-0.2605,-0.2621,-0.2636,-0.2649,-0.2662,-0.2673,-0.2682,-0.2683,-0.2696,-0.2715,-0.2726,-0.2748,-0.2766,-0.2782,-0.2789,-0.2783,-0.2784,-0.2789,-0.2789,-0.2786,-0.2786,-0.2727,-0.2782,-0.2782,-0.2782,-0.2781,-0.2781,-0.2644,-0.2659,-0.2669,-0.2686,-0.2694,-0.2704,-0.2719,-0.2723,-0.2738,-0.2755,-0.2754,-0.2774,-0.2785,-0.2806,-0.2813,-0.2829,-0.2822,-0.2829,-0.2831,-0.2833,-0.2834,-0.2784,-0.2832,-0.2832,-0.2831,-0.2831,-0.2831,0,-0.2695,-0.2701,-0.2716,-0.2731,-0.2744,-0.2737,-0.2749,-0.276,-0.2777,-0.2787,-0.2801,-0.2821,-0.2838,-0.2844,-0.286,-0.2871,-0.2869,-0.2875,-0.2874,-0.2875,-0.284,-0.2833,-0.2876,-0.2876,-0.2876,-0.2876,-0.2876,-0.2876,-0.2724,-0.2748,-0.2749,-0.2776,-0.2782,-0.2801,-0.2808,-0.2817,-0.2824,-0.2847,-0.286,-0.2863,-0.2871,-0.2887,-0.2902,-0.2903,-0.2909,-0.2916,-0.2916,-0.2883,-0.2878,-0.2874,-0.2867,-0.2917,-0.2917,-0.295,-0.295,-0.295]},{"header":{"parameterUnit":"m.s-1","parameterCategory":1,"la1":30.2991,"la2":30.254,"lo1":-89.0895,"lo2":-89.0444,"dx":0.0017,"dy":0.0017,"nx":28,"ny":28,"refTime":"2022-12-24T09:00:00:Z","depth":0,"parameterNumber":3,"parameterNumberName":"V-component_of_WINDS"},"data":[0,0,0,0,0,0,0,0,0,0,0,0,0,0,0,0,0,0,0,0,0,0,0,0,0,0,0,0,0,0,0,0,0,0,0,0,0,0,0,0,0,0,0,0,0,0,0,0,0,0,0,0,0,0,0,0,0,0,-3.9189,-3.919,0,-3.9304,-3.9305,-3.9307,-3.928,-3.9278,-3.9276,-3.9274,-3.9388,-3.9393,-3.9398,0,0,0,0,0,0,0,0,0,0,0,0,0,-3.8941,-3.8946,-3.9189,-3.919,-3.9192,-3.9304,-3.9305,-3.9307,-3.928,-3.9278,-3.9275,-3.9273,-3.9386,-3.9392,-3.9398,0,0,0,0,0,0,0,0,0,0,0,0,0,-3.9052,-3.8947,-3.9189,-3.9192,-3.9194,-3.9304,-3.9305,-3.9307,-3.9281,-3.9278,-3.9274,-3.9271,-3.9384,-3.9392,-3.9399,-3.9512,0,0,-3.9423,-3.9426,0,0,0,0,0,0,0,0,-3.9045,-3.9061,-3.919,-3.9192,-3.9194,-3.9274,-3.926,-3.9376,-3.9282,-3.9248,-3.9273,-3.927,-3.9353,-3.9363,-3.9391,-3.9517,-3.9522,-3.9423,-3.9428,-3.9431,-3.9433,0,0,0,0,0,0,0,-3.9038,-3.9056,-3.9234,-3.9192,-3.9194,-3.9186,-3.9198,-3.9282,-3.9317,-3.925,-3.9249,-3.9263,-3.9353,-3.9384,-3.9394,-3.9524,-3.9423,-3.943,-3.9434,-3.9437,-3.9745,-3.9748,0,0,0,0,0,0,-3.9029,-3.9049,-3.9231,-3.9238,-3.911,-3.9193,-3.9207,-3.9252,-3.9316,-3.9323,-3.9266,-3.9261,-3.9373,-3.9385,-3.9398,-3.9532,-3.9431,-3.9438,-3.9443,-3.9741,-3.9746,-3.9749,0,0,0,0,0,0,-3.9024,-3.9046,-3.9226,-3.9143,-3.9166,-3.9201,-3.9252,-3.9256,-3.9287,-3.9328,-3.9333,-3.9291,-3.937,-3.9387,-3.9483,-3.9535,-3.9442,-3.9449,-3.9737,-3.9743,-3.9748,-3.9802,0,0,0,0,0,0,-3.9017,-3.9044,-3.9088,-3.9144,-3.917,-3.9311,-3.9255,-3.926,-3.93,-3.9296,-3.9353,-3.9359,-3.9369,-3.9472,-3.9491,-3.9544,-3.9454,-3.9732,-3.9739,-3.9746,-3.9795,-3.9808,-3.9819,0,0,0,0,0,-3.9008,-3.9099,-3.9091,-3.9113,-3.9227,-3.9314,-3.9329,-3.9339,-3.9305,-3.9349,-3.9374,-3.9358,-3.9527,-3.9482,-3.9503,-3.9559,-3.9729,-3.9737,-3.9745,-3.979,-3.9806,-3.9819,0,0,0,0,0,0,-3.9047,-3.9106,-3.9098,-3.921,-3.9257,-3.931,-3.9366,-3.9356,-3.9414,-3.9407,-3.9416,-3.9429,-3.9527,-3.9553,-3.9502,-3.967,-3.9623,-3.9635,-3.965,-3.9665,-3.9677,-3.9667,-3.9461,0,0,0,0,0,-3.9069,-3.9137,-3.9184,-3.9278,-3.9303,-3.933,-3.9369,-3.9373,-3.9422,-3.9441,-3.9474,-3.9521,-3.9585,-3.9627,-3.9688,-3.9799,-3.981,-3.9848,-3.986,-3.987,-3.988,-3.9938,-3.9955,-3.9776,-3.9776,-3.9776,0,0,-3.9114,-3.9155,-3.9197,-3.9287,-3.9324,-3.9392,-3.9347,-3.9422,-3.9471,-3.9452,-3.9545,-3.9571,-3.9624,-3.9728,-3.9775,-3.9752,-3.9932,-3.988,-3.9888,-3.9893,-3.9948,-3.9965,-3.998,-3.9781,-3.978,-3.978,0,0,-3.9231,-3.927,-3.9351,-3.9389,-3.9447,-3.9464,-3.9484,-3.9537,-3.9554,-3.9647,-3.9634,-3.9692,-3.9803,-3.984,-3.9874,-4.0003,-3.9989,-4.0023,-4.0084,-4.0141,-4.0155,-4.0168,-4.0212,-4.0227,-4.0033,-4.0033,-4.0033,0,-3.928,-3.9383,-3.9394,-3.9469,-3.9508,-3.9495,-3.9576,-3.9612,-3.9686,-3.9712,-3.9686,-3.9822,-3.9857,-3.9968,-4.0,-4.0028,-4.0049,-4.0015,-4.0153,-4.0165,-4.0177,-4.0219,-4.0236,-4.0037,-4.0036,-4.0036,-4.0036,0,-3.9439,-3.9511,-3.9569,-3.9641,-3.9687,-3.9765,-3.9785,-3.983,-3.9829,-3.9849,-3.9943,-3.9984,-4.0052,-4.0079,-4.008,-4.019,-4.0174,-4.015,-4.0102,-4.0198,-4.0237,-4.0253,-4.0042,-4.0041,-4.004,-4.0039,0,0,-3.9584,-3.966,-3.9681,-3.9712,-3.9774,-3.9828,-3.9904,-3.9972,-4.0008,-4.006,-4.0122,-4.0215,-4.0193,-4.0231,-4.0235,-4.0286,-4.0382,-4.0255,-4.0257,-4.0276,-4.0503,-4.0519,-4.0538,-4.0374,-4.0377,-4.0379,-4.0498,0,-3.9704,-3.984,-3.9851,-3.9972,-4.0036,-4.0024,-4.009,-4.0134,-4.0154,-4.021,-4.0232,-4.0297,-4.0264,-4.0287,-4.0336,-4.036,-4.0428,-4.0352,-4.0429,-4.0432,-4.0415,-4.0559,-4.0576,-4.0686,-4.0514,-4.0516,-4.0518,0,-3.9863,-3.9919,-4.0046,-4.0097,-4.0124,-4.0184,-4.0245,-4.03,-4.0348,-4.0359,-4.0401,-4.0398,-4.0474,-4.0425,-4.0528,-4.0476,-4.0509,-4.0525,-4.053,-4.0536,-4.048,-4.0566,-4.0722,-4.0737,-4.0543,-4.0541,-4.0539,0,-3.9953,-4.006,-4.0149,-4.0177,-4.0239,-4.028,-4.0307,-4.0353,-4.0392,-4.0445,-4.047,-4.0531,-4.0564,-4.0611,-4.0623,-4.0587,-4.0726,-4.0678,-4.0735,-4.0734,-4.0763,-4.0761,-4.0924,-4.0788,-4.0788,-4.0787,-4.0787,0,-4.0085,-4.0163,-4.019,-4.0245,-4.0331,-4.0342,-4.0427,-4.0451,-4.0492,-4.0549,-4.0543,-4.0597,-4.0612,-4.0668,-4.0679,-4.0761,-4.0777,-4.0786,-4.0787,-4.0786,-4.0784,-4.0805,-4.0797,-4.0792,-4.0791,-4.079,-4.0789,0,-4.0199,-4.0221,-4.0317,-4.0367,-4.0382,-4.0443,-4.0485,-4.0536,-4.0555,-4.0628,-4.0646,-4.0675,-4.0741,-4.0759,-4.0838,-4.0845,-4.0941,-4.0937,-4.0925,-4.0924,-4.0979,-4.0973,-4.116,-4.1184,-4.1034,-4.1036,-4.1037,0,-4.0281,-4.0341,-4.0397,-4.0436,-4.0465,-4.0528,-4.0567,-4.058,-4.0621,-4.068,-4.0724,-4.0789,-4.0841,-4.0947,-4.0974,-4.1034,-4.1029,-4.1091,-4.1038,-4.1033,-4.1027,-4.1023,-4.1027,-4.11,-4.1101,-4.1103,-4.1104,0,-4.0424,-4.0431,-4.0489,-4.055,-4.0598,-4.0647,-4.0693,-4.0725,-4.0744,-4.079,-4.0858,-4.0899,-4.0979,-4.1043,-4.1103,-4.1129,-4.1119,-4.112,-4.1136,-4.1134,-4.1124,-4.1127,-4.095,-4.1116,-4.1114,-4.1114,-4.1113,-4.1112,-4.0523,-4.0574,-4.0621,-4.0685,-4.0722,-4.0765,-4.0815,-4.084,-4.0897,-4.0964,-4.0968,-4.104,-4.1085,-4.1165,-4.1194,-4.125,-4.1231,-4.1255,-4.1261,-4.1266,-4.1269,-4.1117,-4.1261,-4.1261,-4.1261,-4.126,-4.126,0,-4.0663,-4.0692,-4.0751,-4.0816,-4.0866,-4.0854,-4.0904,-4.0946,-4.101,-4.1054,-4.1105,-4.1182,-4.1243,-4.1275,-4.1335,-4.1374,-4.137,-4.1389,-4.1385,-4.1391,-4.1284,-4.1263,-4.139,-4.139,-4.139,-4.139,-4.139,-4.139,-4.0741,-4.0827,-4.0839,-4.0942,-4.0971,-4.1042,-4.1072,-4.1111,-4.1145,-4.1231,-4.1282,-4.1303,-4.134,-4.1404,-4.1459,-4.1466,-4.1488,-4.1508,-4.1513,-4.1412,-4.1399,-4.1386,-4.1366,-4.1513,-4.1514,-4.1615,-4.1616,-4.1617]}]]